STARLINK-32778 (62603 NORAD) Tracking and Keplerian Element Data

This shows tracking and keplerian element data for the satellite.

Feedback or suggestion? Click here.




ElementValue
Catalog62603
NameSTARLINK-32778
Epoch Orbit456
Epoch Day34.83335648
Epoch Year2025
RAAN13.8414
Inclination43.0002
Eccentricity0.0001064
Argument of Perigee254.1541
Mean Anonmoly170.7352
Mean Motion15.50534205
Decay Rate0.00096631
L11 62603U 25008S 25034.83335648 .00096631 00000+0 16353-2 0 9990
L22 62603 43.0002 13.8414 0001064 254.1541 170.7352 15.50534205 4562



Live tracking and technical data element details for STARLINK-32778 (NORAD 62603). STARLINK-32778 can be tracked NOW for your location showing map with azimuth and elevation plus other details from your city location.







IsCatalogInMostPopularTable: catalog: 62603, numindb: 3
Update: records affected: 1



GetName: 62603 STARLINK-32778

Hit Count: updated at: Sun, 09 Feb 2025 15:13:53 GMT